Location: Pic du Midi - T1M
(42.9366°N, 0.1426°E)
Time: 03:23:28
(UTC+01:00)

ISS - Visible Passes

Search period start: 03 October 2022 00:00
Search period end: 13 October 2022 00:00
Orbit: 416 x 419 km, 51.6° (Epoch: 02 October)

Date Brightness Start Highest point End Pass type
(mag) Time Alt. Az. Time Alt. Az. Time Alt. Az.
03 Oct -3.8 19:31:22 10° WNW 19:34:43 88° NNE 19:37:17 16° ESE visible
03 Oct -0.6 21:09:41 10° WSW 21:10:13 11° WSW 21:10:13 11° WSW visible
04 Oct -1.5 20:20:35 10° W 20:23:08 20° SW 20:24:26 16° SSW visible
05 Oct -2.2 19:32:05 10° WNW 19:35:09 33° SW 19:38:11 10° SSE visible
07 Oct -0.7 19:33:44 10° WSW 19:35:14 13° SW 19:36:45 10° SSW visible
